Regional Weather Roundup
Issued by NWS

Home | Current Version | Previous Version | Text Only | Print | Product List | Glossary On
Versions: 1 2 3 4 5 6 7 8 9 10 11 12 13 14 15 16 17 18 19 20 21 22 23 24 25 26 27 28 29 30 31 32 33 34 35 36 37 38 39 40 41 42 43 44 45 46 47 48 49 50
000
ASUS43 KDMX 232307
RWRIA

WEATHER ROUNDUP FOR IOWA
NATIONAL WEATHER SERVICE DES MOINES IA
600 PM CDT SAT MAY 23 2015

NOTE: "FAIR" INDICATES FEW OR NO CLOUDS BELOW 12,000 FEET WITH NO
SIGNIFICANT WEATHER AND/OR OBSTRUCTIONS TO VISIBILITY.

* - THESE STATIONS ARE NOT NWS STATIONS...THUS NOT UNDER NWS
QUALITY CONTROL.  THEY ALSO DO NOT REPORT WEATHER SUCH
AS PRECIPITATION OR FOG.

IAZ001>003-012>014-020>022-031>034-043>046-240000-
   NORTHWEST IOWA

CITY           SKY/WX    TMP DP  RH WIND       PRES   REMARKS
CARROLL *      CLOUDY    68  55  64 S10       30.12S
CHEROKEE *     CLOUDY    66  54  63 S12       30.12R
DENISON *      CLOUDY    64  59  82 SW5       30.10F
LE MARS *      CLOUDY    66  55  68 S12G21    30.11S
ORANGE CITY *  CLOUDY    64  54  68 S10G16    30.11S
SHELDON *      CLOUDY    68  50  52 S16       30.09F
SIOUX CITY     CLOUDY    65  54  67 S13       30.09F
SPENCER        CLOUDY    69  48  47 SE9       30.12S
STORM LAKE *   CLOUDY    66  52  59 S13       30.13S
$$

IAZ055>058-069>071-079>083-090>094-240000-
   SOUTHWEST IOWA

CITY           SKY/WX    TMP DP  RH WIND       PRES   REMARKS
ATLANTIC *     CLOUDY    66  57  72 S7        30.11F
AUDUBON *      CLOUDY    66  57  72 S7        30.13S
CLARINDA *     PTSUNNY   68  59  73 S8        30.11S
COUNCIL BLFS * CLOUDY    64  63  94 SE3       30.10F
CRESTON *      PTSUNNY   68  57  68 SE10      30.11F
HARLAN  *      CLOUDY    66  61  82 S7        30.14F
LAMONI         CLOUDY    71  56  58 SE10      30.11F
RED OAK *      CLOUDY    66  59  77 SE9       30.10F
SHENANDOAH *   CLOUDY    66  59  77 S8        30.10S
$$

IAZ047>049-059>061-072>074-084-240000-
   CENTRAL IOWA

CITY           SKY/WX    TMP DP  RH WIND       PRES   REMARKS
AMES           CLOUDY    70  49  47 S10       30.12S
ANKENY *       CLOUDY    72  54  53 S13       30.12S
CHARITON *     CLOUDY    72  54  53 SE12G20   30.12F
DES MOINES     CLOUDY    72  53  51 S15       30.12F
GRINNELL*      PTSUNNY   75  46  35 S15       30.14S
KNOXVILLE *    MOSUNNY   73  52  46 S15G21    30.12S
MARSHALLTOWN   PTSUNNY   74  48  39 S13G21    30.12F
PELLA *        PTSUNNY   72  57  60 SE8       30.14S
PERRY *        CLOUDY    68  54  60 S12       30.13S
$$

IAZ004>006-015-016-023>025-035-036-240000-
   NORTH CENTRAL IOWA

CITY           SKY/WX    TMP DP  RH WIND       PRES   REMARKS
ALGONA *       CLOUDY    68  48  49 S15       30.14S
CLARION *      CLOUDY    72  48  43 S13G18    30.13S
ESTHERVILLE    CLOUDY    66  47  50 S12       30.12F
FORT DODGE *   CLOUDY    68  52  56 SE5       30.14S
MASON CITY     PTSUNNY   73  45  36 S12       30.14F
FOREST CITY *  CLOUDY    68  50  52 S9        30.13S
IOWA FALLS *   PTSUNNY   72  45  37 SE17      30.14S
$$

IAZ007>011-017>019-026>030-037>042-050>054-066-240000-
   NORTHEAST IOWA

CITY           SKY/WX    TMP DP  RH WIND       PRES   REMARKS
CEDAR RAPIDS   PTSUNNY   75  47  36 S12       30.14F
CHARLES CITY * SUNNY     75  45  33 S14G21    30.14F
CLINTON *      PTSUNNY   79  48  34 S13G18    30.19F
DECORAH *      SUNNY     75  43  31 S10       30.15S
DUBUQUE        CLOUDY    74  48  39 S8        30.17F
MONTICELLO *   PTSUNNY   75  48  38 S9G20     30.16S
OELWEIN *      SUNNY     75  46  35 S16       30.16F
WATERLOO       SUNNY     74  46  36 S14G20    30.13F
$$

IAZ064-065-067-068-078-240000-
   EAST CENTRAL IOWA

CITY           SKY/WX    TMP DP  RH WIND       PRES   REMARKS
DAVENPORT      PTSUNNY   78  47  33 S9        30.17F
IOWA CITY      PTSUNNY   77  48  35 S10       30.16F
MT. PLEASANT * PTSUNNY   73  48  40 S9        30.16F
MUSCATINE *    SUNNY     77  46  33 S14       30.16S
QUAD CITIES    PTSUNNY   78  49  35 S12       30.16F
$$

IAZ062-063-075>077-085>089-095>099-240000-
   SOUTHEAST IOWA

CITY           SKY/WX    TMP DP  RH WIND       PRES   REMARKS
BURLINGTON     PTSUNNY   75  48  38 S9        30.16F
FAIRFIELD *    SUNNY     73  46  38 SE14      30.15F
FORT MADISON * MOSUNNY   73  48  40 S5        30.17F
KEOKUK *       PTSUNNY   75  52  43 SE6G15    30.15F
OSKALOOSA *      N/A     73  48  40 S16       30.14F
CENTERVILLE *  SUNNY     72  72 100 SE10      30.15F
OTTUMWA        PTSUNNY   73  50  44 S16       30.14F
WASHINGTON *   SUNNY     75  45  33 S15       30.16F
$$

ABBREVIATIONS USED IN REMARKS
   TC - TEMPERATURES IN CELSIUS
  WCI - WIND CHILL INDEX
   HX - HEAT INDEX
  VSB - VISIBILITY
$$



USA.gov is the U.S. government's official web portal to all federal, state and local government web resources and services.